Home   Weather   Woodbridge   Past weeks
Flag for USA

Past Weather in Woodbridge, North Carolina, USA — Yesterday and Last 2 Weeks

Now
84 °F

Scattered clouds.


Feels Like: 88 °F
Forecast: 91 / 72 °F
Wind: 7 mph from Northwest

Location: Fort Bragg / Simmons Army Airfield

Current Time: Jul 4, 2020 at 9:38:38 pm

Latest Report: Jul 4, 2020 at 7:56 pm


Visibility: 10 mi

Pressure: 29.89 "Hg

Humidity: 62%

Dew Point: 69 °F

Location of WoodbridgeLocation

Past Weather in Woodbridge — Graph

°F

Woodbridge Temperature Yesterday

Maximum temperature yesterday: 93 °F (at 3:56 pm)
Minimum temperature yesterday: 69 °F (at 4:56 am)
Average temperature yesterday: 81 °F

High & Low Weather Summary for the Past Weeks

 TemperatureHumidityPressure
High96 °F (Jul 4, 2:56 pm)100% (Jun 19, 9:18 pm)30.13 "Hg (Jun 19, 9:18 pm)
Low64 °F (Jun 19, 9:18 pm)31% (Jun 26, 3:56 pm)29.78 "Hg (Jun 23, 6:56 pm)
Average79 °F77%29.93 "Hg
* Reported Jun 19 7:34 pm — Jul 4 7:56 pm, Woodbridge. Weather by CustomWeather, © 2020

Note: Actual official high and low records may vary slightly from our data, if they occured in-between our weather recording intervals... More about our weather records

Woodbridge Weather History for the Previous 24 Hours

Scroll right to see more
 ConditionsComfort  
Time TempWeatherWind HumidityBarometerVisibility
7:56 pm
Sat, Jul 4
84 °FScattered clouds.7 mph62%29.89 "Hg10 mi
6:56 pm87 °FScattered clouds.7 mph56%29.87 "Hg10 mi
5:56 pm92 °FPassing clouds.6 mph37%29.86 "Hg10 mi
5:43 pm93 °FSunny.6 mph36%29.86 "Hg10 mi
5:35 pm93 °FLight rain. Passing clouds.No wind36%29.87 "Hg10 mi
4:56 pm93 °FScattered clouds.5 mph37%29.87 "Hg10 mi
3:56 pm95 °FScattered clouds.6 mph36%29.88 "Hg10 mi
2:56 pm96 °FSunny.6 mph33%29.90 "Hg10 mi
1:56 pm94 °FPassing clouds.3 mph36%29.91 "Hg10 mi
12:56 pm92 °FPassing clouds.5 mph36%29.93 "Hg10 mi
11:56 am92 °FSunny.7 mph39%29.93 "Hg10 mi
10:56 am91 °FSunny.3 mph45%29.93 "Hg10 mi
9:56 am87 °FSunny.6 mph52%29.93 "Hg10 mi
8:56 am83 °FSunny.5 mph60%29.92 "Hg10 mi
7:56 am78 °FSunny.3 mph72%29.92 "Hg10 mi
6:56 am74 °FSunny.3 mph83%29.92 "Hg10 mi
5:56 am74 °FClear.No wind80%29.92 "Hg10 mi
5:21 am73 °FClear.No wind89%29.92 "Hg10 mi
4:56 am72 °FClear.No wind94%29.90 "Hg10 mi
3:56 am72 °FClear.No wind100%29.91 "Hg10 mi
2:56 am73 °FClear.No wind97%29.91 "Hg10 mi
1:56 am75 °FClear.5 mph86%29.91 "Hg10 mi
12:56 am74 °FClear.No wind97%29.91 "Hg10 mi
11:56 pm
Fri, Jul 3
75 °FClear.No wind97%29.92 "Hg10 mi
10:56 pm77 °FClear.No wind80%29.92 "Hg10 mi
9:56 pm78 °FClear.No wind82%29.91 "Hg10 mi
Weather by CustomWeather, © 2020

See weather overview